Weather History for KLBF - July, 2013

Change the Weather History Date:

Tuesday, July 30, 2013

  Actual Average Record
Temperature  
Mean Temperature 73 °F 74 °F  
Max Temperature 86 °F 88 °F 105 °F (2002)
Min Temperature 59 °F 61 °F 41 °F (1971)
Degree Days  
Heating Degree Days 0 0  
Month to date heating degree days 13 0  
Since 1 June heating degree days 60 51  
Since 1 July heating degree days 13 0  
Cooling Degree Days 8 10  
Month to date cooling degree days 294 286  
Year to date cooling degree days 521 452  
Since 1 June cooling degree days 473 424  
Growing Degree Days 22 (Base 50)    
Moisture  
Dew Point 61 °F    
Average Humidity 72    
Maximum Humidity 100    
Minimum Humidity 44    
Precipitation  
Precipitation 0.85 in 0.11 in 1.28 in (1932)
Month to date precipitation 2.74 2.97  
Year to date precipitation 10.85 13.83  
Snow  
Snow 0.00 in 0.00 in 0.00 in (2002)
Month to date snowfall 0.0 0.0  
Since 1 June snowfall T 0.0  
Since 1 July snowfall 0.0 0.0  
Snow Depth 0.00 in    
Sea Level Pressure  
Sea Level Pressure 30.09 in    
Wind  
Wind Speed 8 mph (SSE)    
Max Wind Speed 47 mph    
Max Gust Speed 56 mph    
Visibility 4 miles    
Events Fog , Rain , Thunderstorm    
T = Trace of Precipitation, MM = Missing Value Source: NWS Daily Summary

Daily Weather History Graph

Daily Weather History Graph

Search for Another Location

Airport or City:

Trip Planner

Search our weather history database for the weather conditions in past years. The results will help you decide how hot, cold, wet, or windy it might be!

Date:

Astronomy

Jul. 30, 2013 Rise Set
Actual Time 6:36 AM CDT 9:00 PM CDT
Civil Twilight 6:05 AM CDT 9:31 PM CDT
Nautical Twilight 5:26 AM CDT 10:10 PM CDT
Astronomical Twilight 4:43 AM CDT 10:53 PM CDT
Moon 12:56 AM CDT (7/30) 3:22 PM CDT (7/30)
Length of Visible Light 15h 26m
Length of Day
14h 24m
Last Quarter, 41% of the Moon is Illuminated
Jul 30
Last Quarter
Aug 6
New
Aug 14
First Quarter
Aug 20
Full
Aug 28
Last Quarter

Hourly Weather History & Observations

Time (CDT) Temp. Heat Index Dew Point Humidity Pressure Visibility Wind Dir Wind Speed Gust Speed Precip Events Conditions
12:26 AM 60.8 °F - 60.8 °F 100% 30.09 in 2.0 mi Calm Calm - N/A   Scattered Clouds
12:34 AM 60.8 °F - 60.8 °F 100% 30.09 in 2.0 mi Calm Calm - N/A   Mostly Cloudy
12:49 AM 60.8 °F - 60.8 °F 100% 30.09 in 1.2 mi Calm Calm - N/A   Overcast
12:53 AM 61.0 °F - 60.1 °F 97% 30.05 in 0.8 mi Calm Calm - N/A   Overcast
1:08 AM 62.6 °F - 60.8 °F 94% 30.10 in 0.2 mi Calm Calm - N/A Fog Fog
1:53 AM 61.0 °F - 60.1 °F 97% 30.05 in 0.2 mi East 3.5 mph - N/A Fog Fog
2:11 AM 60.8 °F - 60.8 °F 100% 30.10 in 0.2 mi SE 3.5 mph - N/A Fog Fog
2:27 AM 60.8 °F - 60.8 °F 100% 30.10 in 0.2 mi Calm Calm - N/A Fog Fog
2:53 AM 60.1 °F - 59.0 °F 96% 30.06 in 0.2 mi Calm Calm - N/A Fog Fog
3:31 AM 59.0 °F - 57.2 °F 94% 30.11 in 0.2 mi Calm Calm - N/A Fog Fog
3:35 AM 60.8 °F - 57.2 °F 88% 30.12 in 0.5 mi Calm Calm - N/A Fog Fog
3:53 AM 60.1 °F - 59.0 °F 96% 30.06 in 0.2 mi Calm Calm - N/A Fog Fog
4:30 AM 60.8 °F - 59.0 °F 94% 30.12 in 0.2 mi Calm Calm - N/A Fog Fog
4:53 AM 60.1 °F - 59.0 °F 96% 30.07 in 0.5 mi Calm Calm - N/A Fog Fog
5:02 AM 59.0 °F - 59.0 °F 100% 30.12 in 0.2 mi Calm Calm - N/A Fog Fog
5:18 AM 59.0 °F - 57.2 °F 94% 30.12 in 0.2 mi Calm Calm - N/A Fog Fog
5:31 AM 59.0 °F - 57.2 °F 94% 30.12 in 1.0 mi Calm Calm - N/A   Mist
5:37 AM 60.8 °F - 59.0 °F 94% 30.12 in 2.0 mi Calm Calm - N/A   Overcast
5:46 AM 60.8 °F - 59.0 °F 94% 30.12 in 4.0 mi WSW 3.5 mph - N/A   Overcast
5:53 AM 60.1 °F - 59.0 °F 96% 30.07 in 4.0 mi West 6.9 mph - N/A   Overcast
5:57 AM 60.8 °F - 59.0 °F 94% 30.12 in 2.5 mi WSW 8.1 mph - N/A   Overcast
6:06 AM 60.8 °F - 59.0 °F 94% 30.12 in 1.2 mi West 5.8 mph - N/A   Overcast
6:19 AM 60.8 °F - 59.0 °F 94% 30.12 in 0.8 mi West 6.9 mph - N/A   Mist
6:53 AM 61.0 °F - 60.1 °F 97% 30.08 in 0.2 mi Calm Calm - N/A Fog Fog
7:53 AM 62.1 °F - 61.0 °F 96% 30.09 in 0.5 mi West 6.9 mph - N/A Fog Fog
8:53 AM 63.0 °F - 62.1 °F 97% 30.09 in 1.0 mi West 5.8 mph - N/A   Overcast
9:40 AM 64.4 °F - 62.6 °F 94% 30.15 in 1.5 mi West 5.8 mph - N/A   Overcast
9:53 AM 64.0 °F - 63.0 °F 96% 30.10 in 1.5 mi WSW 4.6 mph - N/A   Overcast
10:19 AM 64.4 °F - 62.6 °F 94% 30.15 in 2.0 mi WSW 4.6 mph - N/A   Overcast
10:53 AM 66.0 °F - 64.0 °F 93% 30.10 in 2.5 mi Calm Calm - N/A   Overcast
11:24 AM 68.0 °F - 64.4 °F 88% 30.15 in 3.0 mi Calm Calm - N/A   Overcast
11:53 AM 70.0 °F - 64.0 °F 81% 30.10 in 3.0 mi Calm Calm - N/A   Haze
12:24 PM 73.4 °F - 64.4 °F 73% 30.15 in 4.0 mi Calm Calm - N/A   Haze
12:53 PM 77.0 °F - 66.0 °F 69% 30.09 in 5.0 mi Calm Calm - N/A   Haze
1:53 PM 80.1 °F 81.9 °F 64.9 °F 60% 30.07 in 10.0 mi SE 6.9 mph - N/A   Clear
2:53 PM 82.9 °F 85.0 °F 66.0 °F 56% 30.04 in 10.0 mi SE 8.1 mph - N/A   Clear
3:53 PM 84.0 °F 85.8 °F 64.9 °F 53% 30.03 in 10.0 mi ESE 8.1 mph - N/A   Clear
4:53 PM 84.9 °F 84.8 °F 60.1 °F 43% 30.00 in 10.0 mi ESE 6.9 mph - N/A   Clear
5:53 PM 84.0 °F 85.4 °F 64.0 °F 51% 29.98 in 10.0 mi ESE 15.0 mph - N/A   Clear
6:53 PM 82.0 °F 83.4 °F 64.0 °F 54% 29.99 in 10.0 mi ESE 12.7 mph - N/A   Clear
7:53 PM 79.0 °F - 64.9 °F 62% 29.98 in 10.0 mi ESE 10.4 mph - N/A   Clear
8:24 PM 77.0 °F - 66.2 °F 69% 30.04 in 10.0 mi ESE 15.0 mph - N/A Thunderstorm Clear
8:53 PM 66.9 °F - 62.1 °F 84% 30.13 in 1.2 mi NNE 39.1 mph 56.4 mph 0.00 in Rain , Thunderstorm Light Thunderstorms and Rain
9:01 PM 66.2 °F - 62.6 °F 88% 30.17 in 0.5 mi South 21.9 mph 44.9 mph 0.43 in Rain , Thunderstorm Heavy Thunderstorms and Rain
9:05 PM 66.2 °F - 62.6 °F 88% 30.18 in 1.0 mi South 10.4 mph 27.6 mph 0.61 in Rain , Thunderstorm Heavy Thunderstorms and Rain
9:09 PM 66.2 °F - 62.6 °F 88% 30.15 in 1.8 mi SW 13.8 mph 27.6 mph 0.63 in Rain , Thunderstorm Thunderstorms and Rain
9:12 PM 66.2 °F - 62.6 °F 88% 30.12 in 3.0 mi SSW 19.6 mph - 0.64 in Rain , Thunderstorm Thunderstorms and Rain
9:41 PM 66.2 °F - 62.6 °F 88% 30.09 in 10.0 mi SE 6.9 mph - 0.70 in Thunderstorm Scattered Clouds
9:53 PM 66.0 °F - 63.0 °F 90% 30.04 in 10.0 mi SSE 12.7 mph - 0.70 in Thunderstorm Thunderstorm
10:51 PM 66.2 °F - 62.6 °F 88% 30.18 in 10.0 mi ENE 31.1 mph 38.0 mph 0.15 in Thunderstorm Mostly Cloudy
10:53 PM 64.9 °F - 61.0 °F 87% 30.14 in 10.0 mi ENE 27.6 mph 38.0 mph 0.15 in Thunderstorm Mostly Cloudy
11:37 PM 64.4 °F - 59.0 °F 83% 30.17 in 10.0 mi ESE 24.2 mph 32.2 mph 0.00 in Rain Light Rain
11:53 PM 64.9 °F - 57.0 °F 75% 30.10 in 10.0 mi ESE 17.3 mph 28.8 mph 0.00 in   Clear